ALCOMSAT 1

Last updated on Sat Apr 13 2024 01:02:39 GMT+0100 (British Summer Time)

1 43039U 17078A 24103.44423064 -.00000194 00000+0 00000+0 0 9992 2 43039 0.0323 281.4087 0001649 90.7326 324.1294 1.00272584 23319
UTC large
Height (km)
Speed (km/s)
/
Latitude / Longitude
Inclination (degrees)
Orbital Period (minutes)
Azimuth
Elevation
Range (km)
Doppler Factor

Next 0 passes for location: London (51.5072 / 0.1276)

Sorry there are no passes over London.